Location: Holkham
(52.9500°N, 0.8167°E)
Time: 23:57:18
(UTC+00:00)

Cosmos 220 Rocket - Pass Details

Date: 19 May 2025
Orbit: 546 x 580 km, 74.0° (Epoch: 18 June)

Event Time Altitude Azimuth Distance (km) Brightness Sun altitude
Exits shadow 21:57:15 17° 183° (S) 1,457 5.5 -12.9°
Maximum altitude 22:00:15 53° 110° (ESE) 683 4.0 -13.1°
Drops below altitude 10° 22:04:12 10° 34° (NNE) 1,832 6.9 -13.3°
Sets 22:06:25 0° 29° (NNE) 2,729 7.9 -13.5°
